This is the latest recevied weather packets stored in our database for station/object WL7HC. If no packets are shown the sender has not sent any weather packets the latest 10 day(s).
| Time | Temp. | Humidity | Pressure | Rain* | Wind** | Luminosity | Snow |
|---|---|---|---|---|---|---|---|
| 1787730423 | 16.11° C | 98% | 981 hPa | 0 mm | - | - | - |
| 1787730118 | 16.11° C | 98% | 981 hPa | 0 mm | - | - | - |
| 1787729813 | 16.11° C | 98% | 981.2 hPa | 0 mm | - | - | - |
| 1787729513 | 15.56° C | 98% | 981.1 hPa | 0 mm | - | - | - |
| 1787729208 | 15° C | 97% | 981.1 hPa | 0 mm | - | - | - |
| 1787728903 | 15° C | 97% | 981.2 hPa | 0 mm | - | - | - |
| 1787728598 | 15.56° C | 97% | 981.2 hPa | 0 mm | - | - | - |
| 1787728295 | 15.56° C | 97% | 981.1 hPa | 0 mm | - | - | - |
| 1787727989 | 16.11° C | 98% | 981.2 hPa | 0 mm | - | - | - |
| 1787727688 | 16.11° C | 98% | 981.2 hPa | 0 mm | - | - | - |
| 1787727387 | 16.11° C | 98% | 981.2 hPa | 0 mm | - | - | - |
| 1787727082 | 16.11° C | 98% | 981.3 hPa | 0 mm | - | - | - |
| 1787726777 | 15.56° C | 98% | 981.2 hPa | 0 mm | - | - | - |
| 1787726473 | 15.56° C | 97% | 981.3 hPa | 0 mm | - | - | - |
| 1787726169 | 15.56° C | 97% | 981.3 hPa | 0 mm | - | - | - |
| 1787725864 | 15.56° C | 97% | 981.2 hPa | 0 mm | - | - | - |
| 1787725560 | 15.56° C | 97% | 981.3 hPa | 0 mm | - | - | - |
| 1787725256 | 15.56° C | 97% | 981.4 hPa | 0 mm | - | - | - |
| 1787724950 | 15.56° C | 96% | 981.4 hPa | 0 mm | - | - | - |
| 1787724650 | 15.56° C | 96% | 981.6 hPa | 0 mm | - | - | - |
| 1787724345 | 15.56° C | 96% | 981.7 hPa | 0 mm | - | - | - |
| 1787724040 | 16.11° C | 95% | 981.6 hPa | 0 mm | - | - | - |
| 1787723739 | 16.11° C | 95% | 981.6 hPa | 0 mm | - | - | - |
| 1787723435 | 16.11° C | 94% | 981.7 hPa | 0 mm | - | - | - |
| 1787723131 | 16.67° C | 93% | 981.8 hPa | 0 mm | - | - | - |
* Rain latest hour (hover to see other rain measurements)
** Current wind speed in m/s (hover to see current wind gust speed)